Regional Weather Roundup
Issued by NWS Sterling, VA

Home | Current Version | Previous Version | Text Only | Print | Product List | Glossary Off
Versions: 1 2 3 4 5 6 7 8 9 10 11 12 13 14 15 16 17 18 19 20 21 22 23 24 25 26 27 28 29 30 31 32 33 34 35 36 37 38 39 40 41 42 43 44 45 46 47 48 49 50

000
ASUS41 KLWX 051210
RWRLWX

REGIONAL WEATHER ROUNDUP
NATIONAL WEATHER SERVICE BALTIMORE MD/WASHINGTON DC
700 AM EST MON DEC 05 2016

Note: "FAIR" indicates few or no clouds below 12,000 feet
with no significant weather and/or obstructions to visibility.
 TC=TEMPERATURE CELSIUS

 * =Non NWS site. Station does not report precipitation (e.g. rain,
    snow, etc.), thunder, or fog.

DCZ001-MDZ009-015-VAZ040>042-051-053>054-051300-
WASHINGTON METRO

CITY           SKY/WX    TMP DP  RH WIND       PRES   REMARKS
WASHINGTON NAT CLOUDY    42  41  96 SW6       30.01S
DULLES         CLOUDY    40  37  89 SW8       30.00R
ANDREWS AFB    CLOUDY    41  39  94 SW7       29.99S
FT BELVOIR     CLOUDY    41  38  90 CALM      30.00F
QUANTICO       CLOUDY    42  39  89 SW3       30.01F
COLLEGE PARK*  CLOUDY    41  37  87 CALM      30.01S
LEESBURG*      CLOUDY    41  41 100 MISG      30.00R
MANASSAS*      CLOUDY    41  41 100 CALM      30.00S
GAITHERSBURG*  CLOUDY    39  36  87 SW6       30.03S

$$

MDZ006>007-011-014-051300-
BALTIMORE METRO

CITY           SKY/WX    TMP DP  RH WIND       PRES   REMARKS
BWI AIRPORT    CLOUDY    41  40  96 SW6       30.00S
MD SCIENCE CTR   N/A     43  38  82 MISG      30.02S
MARTIN STATE   CLOUDY    43  43 100 SW3       30.03R
ANNAPOLIS      CLOUDY    43  40  89 S3        30.01R
FORT MEADE*    CLOUDY    39  37  93 SW6       30.03S

$$

MDZ012-015-019>023-051300-
MARYLAND EASTERN SHORE

CITY           SKY/WX    TMP DP  RH WIND       PRES   REMARKS
OCEAN CITY     LGT RAIN  43  42  97 CALM      30.01F FOG
SALISBURY      LGT RAIN  42  41  96 S6        30.00F
BAY BRIDGE AP* CLOUDY    43  41  93 SW9       30.01R
EASTON*        CLOUDY    43  41  93 SW3       30.04F

$$

MDZ017>025-051300-
SOUTHERN MARYLAND

CITY           SKY/WX    TMP DP  RH WIND       PRES   REMARKS
PATUXENT RIVER CLOUDY    42  40  92 CALM      30.00S
ST INIGOES     MOCLDY    43  42  97 SW5       29.99F
LEONARDTOWN*   CLOUDY    41  39  93 CALM      30.01S

$$

MDZ003>005-051300-
NORTH CENTRAL MARYLAND

CITY           SKY/WX    TMP DP  RH WIND       PRES   REMARKS
FREDERICK*     CLOUDY    39  39 100 S7        30.02S
HAGERSTOWN APT CLOUDY    39  36  89 CALM      29.97R
WESTMINSTER*   CLOUDY    37  37 100 S7        29.96F

$$

MDZ501>502-051300-
WESTERN MARYLAND

CITY           SKY/WX    TMP DP  RH WIND       PRES   REMARKS
OAKLAND*       CLOUDY    36  36 100 W13G20    29.95R WCI  27
CUMBERLAND*    NOT AVBL

$$

VAZ025>031-051300-
SHENANDOAH VALLEY

CITY           SKY/WX    TMP DP  RH WIND       PRES   REMARKS
WINCHESTER*    CLOUDY    36  36 100 CALM      29.97R
FRONT ROYAL*   CLOUDY    36  36 100 CALM      29.95R
LURAY*         FAIR      36  36 100 CALM      29.96S
NEW MARKET*    FAIR      33  32  96 CALM      29.96R
STAUNTON*      CLOUDY    36  35  96 CALM      29.98R
WAYNESBORO*    FAIR      35  34  96 S5        29.95S

$$

WVZ021-048>050-054>055-051300-
EASTERN WEST VIRGINIA PANHANDLE

CITY           SKY/WX    TMP DP  RH WIND       PRES   REMARKS
MARTINSBURG    CLOUDY    36  35  96 CALM      29.97R
PETERSBURG*    CLOUDY    50  39  64 W21G28    29.96R

$$

VAZ036>039-050-051300-
CENTRAL FOOTHILLS

CITY           SKY/WX    TMP DP  RH WIND       PRES   REMARKS
CHARLOTTESVILL CLOUDY    40  37  89 S3        29.97F
CULPEPER*      CLOUDY    41  39  95 CALM      30.00F
ORANGE*          N/A     41  41 100 S6        30.00F
GORDONSVILLE*  CLOUDY    39  39  98 CALM      29.97F
WARRENTON*     CLOUDY    41  36  83 SW6       29.98F

$$

VAZ055>057-051300-
NORTH AND CENTRAL PIEDMONT

CITY           SKY/WX    TMP DP  RH WIND       PRES   REMARKS
FREDERICKSBRG* CLOUDY    41  41 100 S3        29.99F
STAFFORD*      CLOUDY    39  39 100 SW3       30.03F

$$

NCZ024-NYZ072-PAZ021-071-VAZ022-071-051300-
OTHER REGIONAL OBSERVATIONS

CITY           SKY/WX    TMP DP  RH WIND       PRES   REMARKS
NEW YORK CITY  LGT RAIN  39  36  89 VRB7      30.04S FOG
PHILADELPHIA   CLOUDY    41  39  93 SW12      30.02R
PITTSBURGH     CLOUDY    41  36  82 W13G23    29.99R
ROANOKE        CLOUDY    38  37  97 NE3       30.00R
RICHMOND       CLOUDY    40  39  97 CALM      29.99F FOG
RALEIGH        CLOUDY    43  41  93 CALM      29.99F

$$

ANZ530>537-051300-
MARINE OBSERVATIONS

STATION/POSITION TIME  TEMP    WIND        PRES
                       AIR SEA DIR/SP/G
                 (UTC) (F)     (DEG/KT/KT) (MB)
THOMAS PT LIGHT  1200   42 49  230/  9/ 10   N/A
BALT KEY BRIDGE  1136   41     210/  3/  4 1016.4R
COVE POINT       1136   42     240/  4/  7 1016.6R
LEWISETTA        1136   43 48  200/  3/  4 1015.3F
SOLOMONS ISLAND  1136   43 50  260/  4/  5   N/A
PINEY POINT      1148          240/  4/  5   N/A

$$




USA.gov is the U.S. government's official web portal to all federal, state and local government web resources and services.